TimeCST,TemperatureF,Dew PointF,Humidity,Sea Level PressureIn,VisibilityMPH,Wind Direction,Wind SpeedMPH,Gust SpeedMPH,PrecipitationIn,Events,Conditions,WindDirDegrees,DateUTC
12:15 AM,33.8,33.8,100,30.20,7.0,Calm,Calm,-,N/A,,Clear,0,2012-11-09 06:15:00
12:35 AM,33.8,33.8,100,30.20,5.0,Calm,Calm,-,N/A,,Clear,0,2012-11-09 06:35:00
12:55 AM,33.8,33.8,100,30.20,3.0,Calm,Calm,-,N/A,,Clear,0,2012-11-09 06:55:00
1:15 AM,33.8,33.8,100,30.20,7.0,Calm,Calm,-,N/A,,Clear,0,2012-11-09 07:15:00
1:35 AM,33.8,33.8,100,30.20,7.0,Calm,Calm,-,N/A,,Clear,0,2012-11-09 07:35:00
1:55 AM,33.8,33.8,100,30.20,7.0,Calm,Calm,-,N/A,,Clear,0,2012-11-09 07:55:00
2:15 AM,33.8,33.8,100,30.20,5.0,Calm,Calm,-,N/A,,Clear,0,2012-11-09 08:15:00
2:35 AM,33.8,32.0,93,30.21,7.0,Calm,Calm,-,N/A,,Clear,0,2012-11-09 08:35:00
2:55 AM,32.0,32.0,100,30.21,5.0,Calm,Calm,-,N/A,,Clear,0,2012-11-09 08:55:00
3:15 AM,32.0,32.0,100,30.22,7.0,Calm,Calm,-,N/A,,Clear,0,2012-11-09 09:15:00
3:35 AM,32.0,32.0,100,30.22,5.0,Calm,Calm,-,N/A,,Clear,0,2012-11-09 09:35:00
3:55 AM,32.0,32.0,100,30.23,5.0,Calm,Calm,-,N/A,,Clear,0,2012-11-09 09:55:00
4:15 AM,32.0,32.0,100,30.24,5.0,Calm,Calm,-,N/A,,Clear,0,2012-11-09 10:15:00
4:35 AM,32.0,32.0,100,30.24,5.0,Calm,Calm,-,N/A,,Clear,0,2012-11-09 10:35:00
4:55 AM,32.0,32.0,100,30.24,10.0,Calm,Calm,-,N/A,,Clear,0,2012-11-09 10:55:00
5:15 AM,32.0,32.0,100,30.25,7.0,Calm,Calm,-,N/A,,Clear,0,2012-11-09 11:15:00
5:35 AM,32.0,32.0,100,30.25,4.0,Calm,Calm,-,N/A,,Clear,0,2012-11-09 11:35:00
6:15 AM,32.0,32.0,100,30.26,7.0,Calm,Calm,-,N/A,,Clear,0,2012-11-09 12:15:00
6:35 AM,32.0,32.0,100,30.26,5.0,Calm,Calm,-,N/A,,Clear,0,2012-11-09 12:35:00
6:55 AM,32.0,32.0,100,30.26,5.0,Calm,Calm,-,N/A,,Clear,0,2012-11-09 12:55:00
7:15 AM,35.6,33.8,93,30.27,7.0,Calm,Calm,-,N/A,,Clear,0,2012-11-09 13:15:00
7:35 AM,39.2,39.2,100,30.27,10.0,Calm,Calm,-,N/A,,Clear,0,2012-11-09 13:35:00
7:55 AM,42.8,41.0,93,30.28,10.0,Calm,Calm,-,N/A,,Clear,0,2012-11-09 13:55:00
8:15 AM,44.6,42.8,93,30.28,10.0,South,3.5,-,N/A,,Clear,170,2012-11-09 14:15:00
8:35 AM,48.2,44.6,87,30.29,10.0,South,3.5,-,N/A,,Clear,170,2012-11-09 14:35:00
8:55 AM,50.0,42.8,76,30.29,10.0,SSE,5.8,-,N/A,,Clear,160,2012-11-09 14:55:00
9:15 AM,51.8,42.8,71,30.29,10.0,SSE,4.6,-,N/A,,Clear,160,2012-11-09 15:15:00
9:35 AM,55.4,42.8,63,30.30,10.0,SE,4.6,-,N/A,,Clear,140,2012-11-09 15:35:00
9:55 AM,59.0,44.6,59,30.30,10.0,South,5.8,-,N/A,,Clear,170,2012-11-09 15:55:00
10:15 AM,59.0,44.6,59,30.30,10.0,South,4.6,-,N/A,,Clear,190,2012-11-09 16:15:00
10:35 AM,60.8,44.6,55,30.30,10.0,SSW,5.8,-,N/A,,Clear,210,2012-11-09 16:35:00
10:55 AM,62.6,44.6,52,30.29,10.0,SSE,5.8,-,N/A,,Clear,150,2012-11-09 16:55:00
11:15 AM,62.6,44.6,52,30.27,10.0,South,5.8,-,N/A,,Clear,180,2012-11-09 17:15:00
11:35 AM,64.4,44.6,49,30.26,10.0,SSE,3.5,-,N/A,,Clear,160,2012-11-09 17:35:00
11:55 AM,64.4,42.8,45,30.25,10.0,Calm,Calm,-,N/A,,Clear,0,2012-11-09 17:55:00
12:15 PM,66.2,44.6,46,30.23,10.0,ESE,5.8,-,N/A,,Clear,120,2012-11-09 18:15:00
12:35 PM,66.2,44.6,46,30.22,10.0,Calm,Calm,-,N/A,,Clear,0,2012-11-09 18:35:00
12:55 PM,68.0,42.8,40,30.21,10.0,South,6.9,-,N/A,,Clear,190,2012-11-09 18:55:00
1:15 PM,68.0,42.8,40,30.20,10.0,SE,5.8,-,N/A,,Clear,140,2012-11-09 19:15:00
1:35 PM,68.0,42.8,40,30.20,10.0,South,5.8,-,N/A,,Clear,190,2012-11-09 19:35:00
1:55 PM,68.0,42.8,40,30.20,10.0,East,4.6,-,N/A,,Clear,100,2012-11-09 19:55:00
2:15 PM,68.0,41.0,37,30.19,10.0,SE,4.6,-,N/A,,Clear,140,2012-11-09 20:15:00
2:35 PM,68.0,41.0,37,30.19,10.0,SE,6.9,-,N/A,,Clear,130,2012-11-09 20:35:00
2:55 PM,68.0,41.0,37,30.18,10.0,SSE,5.8,-,N/A,,Clear,150,2012-11-09 20:55:00
3:15 PM,68.0,41.0,37,30.18,10.0,SSE,5.8,-,N/A,,Clear,150,2012-11-09 21:15:00
3:35 PM,68.0,42.8,40,30.18,10.0,SSE,4.6,-,N/A,,Clear,150,2012-11-09 21:35:00
3:55 PM,68.0,42.8,40,30.18,10.0,SE,8.1,-,N/A,,Clear,130,2012-11-09 21:55:00
4:35 PM,62.6,44.6,52,30.17,10.0,SE,4.6,-,N/A,,Clear,130,2012-11-09 22:35:00
4:55 PM,60.8,44.6,55,30.17,10.0,SE,3.5,-,N/A,,Clear,130,2012-11-09 22:55:00
5:15 PM,59.0,44.6,59,30.18,10.0,SSE,3.5,-,N/A,,Clear,150,2012-11-09 23:15:00
5:35 PM,57.2,44.6,63,30.18,10.0,Calm,Calm,-,N/A,,Clear,0,2012-11-09 23:35:00
5:55 PM,55.4,44.6,67,30.18,10.0,Calm,Calm,-,N/A,,Clear,0,2012-11-09 23:55:00
6:15 PM,55.4,44.6,67,30.19,10.0,Calm,Calm,-,N/A,,Clear,0,2012-11-10 00:15:00
6:35 PM,53.6,44.6,72,30.19,10.0,SSE,3.5,-,N/A,,Clear,160,2012-11-10 00:35:00
6:55 PM,53.6,44.6,72,30.19,10.0,SSE,4.6,-,N/A,,Clear,150,2012-11-10 00:55:00
7:15 PM,51.8,44.6,76,30.19,10.0,SSE,3.5,-,N/A,,Clear,160,2012-11-10 01:15:00
7:35 PM,53.6,44.6,72,30.19,10.0,SSE,3.5,-,N/A,,Clear,150,2012-11-10 01:35:00
7:55 PM,51.8,42.8,71,30.20,10.0,Calm,Calm,-,N/A,,Clear,0,2012-11-10 01:55:00
8:15 PM,50.0,44.6,82,30.20,10.0,SSE,3.5,-,N/A,,Clear,160,2012-11-10 02:15:00
8:35 PM,50.0,42.8,76,30.20,10.0,Calm,Calm,-,N/A,,Clear,0,2012-11-10 02:35:00
8:55 PM,46.4,42.8,87,30.21,10.0,Calm,Calm,-,N/A,,Clear,0,2012-11-10 02:55:00
9:15 PM,46.4,44.6,93,30.21,10.0,Calm,Calm,-,N/A,,Clear,0,2012-11-10 03:15:00
9:35 PM,46.4,44.6,93,30.21,10.0,Calm,Calm,-,N/A,,Clear,0,2012-11-10 03:35:00
9:55 PM,50.0,44.6,82,30.21,10.0,SSE,3.5,-,N/A,,Clear,160,2012-11-10 03:55:00
10:15 PM,48.2,44.6,87,30.21,10.0,Calm,Calm,-,N/A,,Clear,0,2012-11-10 04:15:00
10:35 PM,46.4,42.8,87,30.21,10.0,SSE,3.5,-,N/A,,Clear,160,2012-11-10 04:35:00
10:55 PM,46.4,42.8,87,30.21,10.0,Calm,Calm,-,N/A,,Clear,0,2012-11-10 04:55:00
11:15 PM,46.4,42.8,87,30.21,10.0,Calm,Calm,-,N/A,,Clear,0,2012-11-10 05:15:00
11:35 PM,46.4,42.8,87,30.21,10.0,South,3.5,-,N/A,,Clear,170,2012-11-10 05:35:00
11:55 PM,42.8,41.0,93,30.21,10.0,Calm,Calm,-,N/A,,Clear,0,2012-11-10 05:55:00